Radiation Dose at Monitoring Post of Fukushima Daini Nuclear Power Station
Date,Time,MP-1(microSv/h),MP-2(microSv/h),MP-3(microSv/h),MP-4(microSv/h),MP-5(microSv/h),MP-6(microSv/h),MP-7(microSv/h),Wind Direction,Wind Velocity(m/s),Rain
2015/06/09,00:00,0.524,0.302,0.549,0.495,0.475,0.250,0.222,south,9.5,No
2015/06/09,00:10,0.520,0.305,0.552,0.498,0.477,0.250,0.222,south,8.0,No
2015/06/09,00:20,0.527,0.302,0.554,0.494,0.475,0.248,0.223,south-southwest,7.6,No
2015/06/09,00:30,0.520,0.303,0.549,0.500,0.474,0.250,0.222,south,7.7,No
2015/06/09,00:40,0.526,0.302,0.555,0.493,0.479,0.250,0.222,south,8.3,No
2015/06/09,00:50,0.525,0.303,0.549,0.497,0.472,0.250,0.223,south,7.8,No
2015/06/09,01:00,0.524,0.304,0.552,0.496,0.477,0.250,0.224,south,8.3,No
2015/06/09,01:10,0.526,0.301,0.552,0.494,0.474,0.248,0.222,south,8.5,No
2015/06/09,01:20,0.521,0.304,0.549,0.498,0.476,0.251,0.223,south,9.2,Yes
2015/06/09,01:30,0.527,0.301,0.556,0.493,0.476,0.250,0.221,south,8.6,Yes
2015/06/09,01:40,0.522,0.304,0.549,0.497,0.475,0.250,0.223,south,8.0,Yes
2015/06/09,01:50,0.525,0.302,0.555,0.495,0.478,0.249,0.223,south-southwest,8.1,Yes
2015/06/09,02:00,0.524,0.303,0.551,0.500,0.474,0.250,0.222,south-southwest,7.8,Yes
2015/06/09,02:10,0.525,0.302,0.553,0.493,0.478,0.251,0.221,south,6.7,Yes
2015/06/09,02:20,0.524,0.303,0.552,0.498,0.473,0.249,0.224,south,6.6,Yes
2015/06/09,02:30,0.523,0.302,0.553,0.496,0.477,0.252,0.223,south,6.3,Yes
2015/06/09,02:40,0.523,0.302,0.552,0.496,0.474,0.248,0.224,south,6.2,Yes
2015/06/09,02:50,0.522,0.302,0.550,0.495,0.478,0.251,0.222,south,5.8,Yes
2015/06/09,03:00,0.526,0.302,0.552,0.495,0.471,0.249,0.223,south,5.3,Yes
2015/06/09,03:10,0.522,0.303,0.548,0.493,0.476,0.250,0.222,south,5.6,Yes
2015/06/09,03:20,0.525,0.303,0.551,0.493,0.469,0.248,0.222,south-southeast,5.0,Yes
2015/06/09,03:30,0.518,0.302,0.547,0.493,0.474,0.250,0.222,south-southeast,5.4,Yes
2015/06/09,03:40,0.525,0.301,0.549,0.492,0.470,0.249,0.222,south-southeast,7.1,Yes
2015/06/09,03:50,0.519,0.301,0.545,0.492,0.473,0.249,0.221,southeast,8.6,Yes
2015/06/09,04:00,0.523,0.301,0.551,0.490,0.469,0.249,0.221,southeast,7.7,Yes
2015/06/09,04:10,0.520,0.302,0.545,0.492,0.474,0.249,0.221,southeast,8.1,Yes
2015/06/09,04:20,0.520,0.300,0.549,0.489,0.472,0.249,0.221,southeast,8.1,Yes
2015/06/09,04:30,0.520,0.303,0.546,0.491,0.473,0.248,0.221,southeast,9.6,Yes
2015/06/09,04:40,0.520,0.300,0.545,0.489,0.469,0.248,0.220,southeast,10.7,Yes
2015/06/09,04:50,0.518,0.301,0.544,0.492,0.471,0.248,0.220,southeast,10.1,Yes
2015/06/09,05:00,0.517,0.299,0.544,0.486,0.468,0.248,0.219,southeast,9.8,Yes
2015/06/09,05:10,0.519,0.302,0.542,0.490,0.471,0.248,0.220,southeast,9.8,Yes
2015/06/09,05:20,0.518,0.299,0.543,0.488,0.469,0.249,0.221,southeast,11.1,Yes
2015/06/09,05:30,0.518,0.302,0.544,0.489,0.469,0.250,0.220,southeast,11.1,Yes
2015/06/09,05:40,0.514,0.299,0.541,0.484,0.469,0.250,0.221,southeast,11.3,Yes
2015/06/09,05:50,0.519,0.302,0.543,0.489,0.471,0.249,0.221,southeast,11.0,Yes
2015/06/09,06:00,0.514,0.301,0.539,0.483,0.470,0.250,0.222,southeast,10.1,Yes
2015/06/09,06:10,0.518,0.302,0.541,0.487,0.470,0.249,0.221,southeast,9.2,Yes
2015/06/09,06:20,0.513,0.300,0.535,0.480,0.469,0.249,0.220,-,CALM,Yes
2015/06/09,06:30,0.517,0.300,0.538,0.483,0.464,0.248,0.219,southeast,7.6,Yes
2015/06/09,06:40,0.509,0.299,0.532,0.476,0.467,0.249,0.220,south-southeast,6.9,Yes
2015/06/09,06:50,0.515,0.300,0.536,0.482,0.467,0.249,0.219,southeast,5.9,Yes
2015/06/09,07:00,0.509,0.299,0.530,0.476,0.468,0.247,0.218,southeast,5.1,Yes
2015/06/09,07:10,0.510,0.298,0.534,0.481,0.465,0.247,0.219,southeast,5.2,Yes
2015/06/09,07:20,0.511,0.299,0.529,0.476,0.468,0.248,0.218,southeast,6.1,Yes
2015/06/09,07:30,0.509,0.298,0.533,0.479,0.465,0.247,0.219,east-southeast,6.5,Yes
2015/06/09,07:40,0.508,0.298,0.528,0.475,0.469,0.247,0.218,east-southeast,7.6,Yes
2015/06/09,07:50,0.507,0.298,0.531,0.476,0.465,0.246,0.219,southeast,6.1,Yes
2015/06/09,08:00,0.510,0.299,0.527,0.475,0.468,0.247,0.217,east,6.6,Yes
2015/06/09,08:10,0.507,0.298,0.529,0.475,0.463,0.246,0.219,east,6.4,Yes
2015/06/09,08:20,0.510,0.298,0.529,0.474,0.467,0.247,0.218,east-southeast,6.8,Yes
2015/06/09,08:30,0.503,0.296,0.527,0.476,0.463,0.244,0.217,east-southeast,5.9,Yes
2015/06/09,08:40,0.508,0.296,0.529,0.473,0.469,0.246,0.218,northeast,7.3,Yes
2015/06/09,08:50,0.502,0.295,0.524,0.473,0.463,0.243,0.217,east,4.9,Yes
2015/06/09,09:00,0.506,0.295,0.527,0.473,0.467,0.245,0.216,east-northeast,5.1,Yes
2015/06/09,09:10,0.500,0.295,0.523,0.469,0.462,0.244,0.214,east-northeast,3.9,Yes
2015/06/09,09:20,0.504,0.295,0.525,0.470,0.464,0.242,0.214,northeast,5.4,Yes
2015/06/09,09:30,0.497,0.291,0.518,0.464,0.458,0.240,0.212,north-northeast,4.8,Yes
2015/06/09,09:40,0.499,0.293,0.523,0.467,-,0.238,0.212,north-northeast,4.1,Yes
2015/06/09,09:50,0.494,0.291,0.517,0.461,-,0.239,0.211,north,5.2,Yes
2015/06/09,10:00,0.494,0.292,0.519,0.464,-,0.237,0.210,north-northwest,5.3,Yes
2015/06/09,10:10,0.493,0.289,0.519,0.461,-,0.237,0.209,north,5.9,Yes
2015/06/09,10:20,0.491,0.289,0.517,0.465,-,0.236,0.210,north,6.3,Yes
2015/06/09,10:30,0.494,0.288,0.519,0.462,-,0.236,0.207,north-northwest,6.1,Yes
2015/06/09,10:40,0.489,0.290,0.516,0.463,-,0.235,0.209,north-northwest,6.8,Yes
2015/06/09,10:50,0.493,0.290,0.521,0.464,-,0.235,0.207,north,6.7,Yes
2015/06/09,11:00,0.487,0.287,0.516,0.463,-,0.234,0.209,north,7.7,Yes
2015/06/09,11:10,0.491,0.289,0.522,0.464,-,0.234,0.207,north-northwest,8.3,Yes
2015/06/09,11:20,0.487,0.287,0.517,0.461,-,0.234,0.208,north-northwest,8.1,Yes
2015/06/09,11:30,0.490,0.288,0.519,0.466,-,0.234,0.207,north-northwest,8.6,Yes
2015/06/09,11:40,0.489,0.287,0.519,0.461,-,0.235,0.207,north-northwest,8.4,Yes
2015/06/09,11:50,0.489,0.289,0.518,0.468,-,0.235,0.208,north-northwest,9.5,Yes
2015/06/09,12:00,0.492,0.287,0.520,0.463,-,0.234,0.207,north-northwest,9.5,Yes
2015/06/09,12:10,0.488,0.290,0.515,0.467,-,0.236,0.208,north-northwest,9.5,Yes
2015/06/09,12:20,0.493,0.289,0.523,0.465,-,0.234,0.207,north-northwest,10.2,Yes
2015/06/09,12:30,0.488,0.288,0.518,0.465,-,0.235,0.208,north-northwest,11.2,Yes
2015/06/09,12:40,0.495,0.288,0.523,0.469,-,0.234,0.206,north-northwest,11.2,Yes
2015/06/09,12:50,0.492,0.288,0.522,0.464,-,0.236,0.209,north-northwest,11.8,No
2015/06/09,13:00,0.495,0.289,0.520,0.469,-,0.235,0.209,north-northwest,11.8,Yes
2015/06/09,13:10,0.497,0.288,0.523,0.467,-,0.236,0.208,north-northwest,11.1,Yes
2015/06/09,13:20,0.492,0.290,0.520,0.471,-,0.236,0.209,north-northwest,10.1,No
2015/06/09,13:30,0.497,0.290,0.525,0.471,-,0.235,0.208,north-northwest,8.7,No
2015/06/09,13:40,0.494,0.289,0.522,0.466,-,0.236,0.209,north-northwest,8.6,No
2015/06/09,13:50,0.496,0.293,0.522,0.472,-,0.238,0.210,north-northwest,8.9,No
2015/06/09,14:00,0.500,0.290,0.526,0.471,-,0.237,0.208,north-northwest,8.0,No
2015/06/09,14:10,0.493,0.292,0.520,0.470,-,0.237,0.209,north-northwest,7.2,No
2015/06/09,14:20,0.501,0.293,0.524,0.472,-,0.237,0.211,north-northwest,9.0,No
2015/06/09,14:30,0.499,0.288,0.527,0.467,-,0.236,0.209,north-northwest,7.2,No
2015/06/09,14:40,0.495,0.292,0.520,0.471,-,0.237,0.210,north-northwest,7.5,No
2015/06/09,14:50,0.503,0.292,0.527,0.471,-,0.238,0.209,north-northwest,5.8,No
2015/06/09,15:00,0.498,0.290,0.525,0.467,0.460,0.237,0.208,north-northwest,6.2,No
2015/06/09,15:10,0.497,0.294,0.521,0.473,0.456,0.237,0.209,north-northwest,5.9,No
2015/06/09,15:20,0.504,0.293,0.530,0.472,0.454,0.238,0.210,northwest,6.4,No
2015/06/09,15:30,0.498,0.290,0.526,0.468,0.458,0.236,0.209,north-northwest,5.0,No
2015/06/09,15:40,0.498,0.292,0.523,0.475,0.459,0.237,0.208,north-northwest,4.7,No
2015/06/09,15:50,0.504,0.293,0.529,0.474,0.454,0.238,0.211,north-northwest,4.1,No
2015/06/09,16:00,0.497,0.291,0.526,0.469,0.461,0.238,0.209,north,3.9,No
2015/06/09,16:10,0.499,0.292,0.521,0.476,0.460,0.238,0.210,north-northwest,3.1,No
2015/06/09,16:20,0.503,0.292,0.531,0.472,0.455,0.238,0.210,north-northwest,3.5,No
2015/06/09,16:30,0.498,0.290,0.525,0.470,0.460,0.237,0.208,north-northwest,4.2,No
2015/06/09,16:40,0.502,0.295,0.524,0.477,0.459,0.238,0.210,northwest,4.7,No
2015/06/09,16:50,0.503,0.291,0.530,0.471,0.454,0.240,0.210,northwest,5.6,No
2015/06/09,17:00,0.497,0.290,0.525,0.474,0.461,0.237,0.210,northwest,4.2,No
2015/06/09,17:10,0.504,0.294,0.528,0.475,0.459,0.238,0.210,north-northwest,2.4,No
2015/06/09,17:20,0.500,0.292,0.529,0.470,0.455,0.237,0.210,northwest,2.8,No
2015/06/09,17:30,0.499,0.292,0.522,0.476,0.463,0.240,0.211,northwest,2.9,No
2015/06/09,17:40,0.503,0.293,0.529,0.473,0.457,0.238,0.210,north-northwest,2.5,No
2015/06/09,17:50,0.500,0.291,0.528,0.470,0.458,0.238,0.211,north,4.2,No
2015/06/09,18:00,0.504,0.294,0.525,0.475,0.460,0.239,0.209,north,3.6,No
2015/06/09,18:10,0.501,0.292,0.529,0.471,0.455,0.239,0.211,north,3.1,No
2015/06/09,18:20,0.501,0.294,0.524,0.473,0.460,0.240,0.209,north-northwest,1.6,No
2015/06/09,18:30,0.503,0.293,0.528,0.476,0.456,0.239,0.211,west,0.6,No
2015/06/09,18:40,0.501,0.291,0.529,0.471,0.457,0.240,0.210,west-northwest,0.7,No
2015/06/09,18:50,0.505,0.294,0.527,0.476,0.461,0.239,0.210,-,CALM,No
2015/06/09,19:00,0.499,0.291,0.532,0.471,0.454,0.238,0.211,-,CALM,No
2015/06/09,19:10,0.505,0.293,0.525,0.474,0.462,0.241,0.212,north-northwest,0.6,No
2015/06/09,19:20,0.500,0.291,0.529,0.475,0.458,0.239,0.211,-,CALM,No
2015/06/09,19:30,0.503,0.295,0.528,0.474,0.461,0.240,0.211,-,CALM,No
2015/06/09,19:40,0.505,0.291,0.526,0.476,0.460,0.239,0.211,west-northwest,1.4,No
2015/06/09,19:50,0.500,0.293,0.530,0.473,0.462,0.241,0.211,west-northwest,1.9,No
2015/06/09,20:00,0.506,0.292,0.525,0.475,0.459,0.239,0.211,northwest,3.9,No
2015/06/09,20:10,0.502,0.293,0.532,0.473,0.459,0.240,0.209,northwest,3.6,No
2015/06/09,20:20,0.504,0.292,0.524,0.478,0.460,0.239,0.211,north-northwest,2.9,No
2015/06/09,20:30,0.502,0.294,0.532,0.473,0.459,0.240,0.210,north-northwest,2.8,No
2015/06/09,20:40,0.506,0.293,0.524,0.478,0.460,0.239,0.211,north-northwest,2.6,No
2015/06/09,20:50,0.501,0.293,0.530,0.474,0.457,0.241,0.211,north-northwest,2.4,No
2015/06/09,21:00,0.507,0.291,0.526,0.477,0.461,0.240,0.211,north,2.1,No
2015/06/09,21:10,0.503,0.293,0.529,0.472,0.459,0.240,0.211,north-northwest,2.5,No
2015/06/09,21:20,0.506,0.292,0.528,0.476,0.461,0.239,0.211,north-northwest,2.1,No
2015/06/09,21:30,0.503,0.294,0.527,0.475,0.457,0.240,0.211,north-northwest,3.3,No
2015/06/09,21:40,0.504,0.293,0.530,0.476,0.460,0.239,0.211,north-northwest,4.1,No
2015/06/09,21:50,0.503,0.294,0.523,0.475,0.457,0.240,0.211,north-northwest,3.8,No
2015/06/09,22:00,0.502,0.292,0.532,0.475,0.461,0.240,0.212,north-northwest,3.3,No
2015/06/09,22:10,0.506,0.293,0.525,0.475,0.457,0.240,0.211,north,2.7,No
2015/06/09,22:20,0.501,0.293,0.531,0.474,0.463,0.239,0.210,north,2.2,No
2015/06/09,22:30,0.507,0.292,0.525,0.477,0.458,0.240,0.212,north-northwest,3.0,No
2015/06/09,22:40,0.502,0.293,0.531,0.473,0.460,0.240,0.211,north,3.5,No
2015/06/09,22:50,0.506,0.293,0.527,0.477,0.460,0.240,0.212,north,3.2,No
2015/06/09,23:00,0.502,0.293,0.529,0.474,0.460,0.239,0.210,north,3.1,No
2015/06/09,23:10,0.507,0.293,0.528,0.477,0.460,0.240,0.212,north-northwest,2.8,No
2015/06/09,23:20,0.502,0.294,0.527,0.472,0.458,0.239,0.211,northeast,1.9,No
2015/06/09,23:30,0.506,0.293,0.529,0.479,0.461,0.240,0.212,north-northeast,1.8,No
2015/06/09,23:40,0.504,0.293,0.527,0.472,0.457,0.241,0.210,north-northwest,1.8,No
2015/06/09,23:50,0.505,0.291,0.530,0.477,0.461,0.240,0.211,northwest,2.0,No
